Location: Observatoire
(46.1952°N, 5.3391°E)
Time: 23:55:38
(UTC+01:00)

Courier 1B Rocket - Pass Details

Date: 18 February 2026
Orbit: 920 x 1201 km, 28.2° (Epoch: 11 March)

Event Time Altitude Azimuth Distance (km) Brightness Sun altitude
Rises 22:35:01 0° 242° (WSW) 3,597 8.2 -44.6°
Enters shadow 22:35:15 - 241° (WSW) 3,530 8.1 -44.7°
Reaches altitude 10° 22:38:59 10° 218° (SW) 2,695 - -45.2°
Maximum altitude 22:42:10 14° 188° (S) 2,447 - -45.6°
Drops below altitude 10° 22:45:27 10° 159° (SSE) 2,783 - -46.0°
Sets 22:49:40 0° 135° (SE) 3,800 - -46.5°
